RUK22M LFOB-EGCC

Flight info

Callsign RUK22M
Flight time 0h 53m
Altitude 34000
Route VESAN DCT RATUK DCT SOVAT L613 SANDY UN57 WELIN T420 ELVOS
Aircraft B738/M-SDE2E3FGHIRWXY/LB1

Departure

Time 2026-05-06 19:59
Airport Beauvais-Tillé airport (LFOB)

Arrival

Time 2026-05-06 20:53
Airport Manchester Airport (EGCC)
Time Latitude Longitude Altitude Speed Heading
2026-05-06 19:37 49.45895 2.11424 333 ft 0 kts 337°
2026-05-06 19:51 49.45876 2.11436 329 ft 4 kts 336°
2026-05-06 19:51 49.45851 2.11450 330 ft 4 kts 349°
2026-05-06 19:51 49.45825 2.11452 330 ft 4 kts 15°
2026-05-06 19:51 49.45804 2.11435 329 ft 2 kts 46°
2026-05-06 19:52 49.45800 2.11429 330 ft 0 kts 46°
2026-05-06 19:53 49.45804 2.11443 333 ft 4 kts 75°
2026-05-06 19:53 49.45777 2.11521 330 ft 12 kts 129°
2026-05-06 19:54 49.45704 2.11600 332 ft 14 kts 179°
2026-05-06 19:54 49.45629 2.11521 332 ft 13 kts 221°
2026-05-06 19:54 49.45560 2.11432 332 ft 13 kts 221°
2026-05-06 19:54 49.45494 2.11345 339 ft 12 kts 215°
2026-05-06 19:55 49.45414 2.11348 335 ft 12 kts 136°
2026-05-06 19:55 49.45365 2.11452 338 ft 12 kts 123°
2026-05-06 19:55 49.45319 2.11556 340 ft 12 kts 124°
2026-05-06 19:55 49.45270 2.11668 337 ft 14 kts 123°
2026-05-06 19:56 49.45207 2.11818 345 ft 18 kts 123°
2026-05-06 19:56 49.45131 2.11999 351 ft 22 kts 122°
2026-05-06 19:56 49.45048 2.12187 350 ft 21 kts 126°
2026-05-06 19:56 49.44963 2.12365 349 ft 20 kts 126°
2026-05-06 19:57 49.44887 2.12544 344 ft 20 kts 123°
2026-05-06 19:57 49.44814 2.12714 349 ft 19 kts 125°
2026-05-06 19:57 49.44741 2.12885 351 ft 18 kts 123°
2026-05-06 19:57 49.44680 2.13044 350 ft 16 kts 104°
2026-05-06 19:58 49.44675 2.13156 349 ft 8 kts 116°
2026-05-06 19:58 49.44640 2.13143 350 ft 7 kts 266°
2026-05-06 19:58 49.44651 2.13095 359 ft 0 kts 297°
2026-05-06 19:59 49.44725 2.12922 349 ft 55 kts 303°
2026-05-06 19:59 49.45078 2.12117 349 ft 124 kts 304°
2026-05-06 19:59 49.45630 2.10819 582 ft 158 kts 304°
2026-05-06 19:59 49.46253 2.09382 1340 ft 163 kts 307°
2026-05-06 20:00 49.46881 2.07975 2304 ft 156 kts 308°
2026-05-06 20:00 49.47634 2.06719 2848 ft 174 kts 337°
2026-05-06 20:00 49.48874 2.06586 3344 ft 193 kts
2026-05-06 20:00 49.50310 2.06658 3650 ft 216 kts
2026-05-06 20:01 49.51839 2.06670 4379 ft 223 kts 360°
2026-05-06 20:01 49.53410 2.06660 5102 ft 235 kts 360°
2026-05-06 20:01 49.55148 2.06631 5494 ft 260 kts 359°
2026-05-06 20:01 49.56970 2.06585 6238 ft 269 kts 359°
2026-05-06 20:02 49.58887 2.06524 7100 ft 273 kts 358°
2026-05-06 20:02 49.60759 2.06454 8057 ft 273 kts 357°
2026-05-06 20:02 49.62669 2.06375 8934 ft 276 kts 358°
2026-05-06 20:02 49.64607 2.06289 9796 ft 280 kts 357°
2026-05-06 20:03 49.66569 2.06198 10524 ft 288 kts 356°
2026-05-06 20:03 49.68659 2.06096 10740 ft 314 kts 357°
2026-05-06 20:03 49.70914 2.05985 10936 ft 338 kts 357°
2026-05-06 20:03 49.73296 2.05867 11571 ft 345 kts 357°
2026-05-06 20:04 49.75718 2.05746 12261 ft 351 kts 358°
2026-05-06 20:04 49.78176 2.05623 12990 ft 356 kts 358°
2026-05-06 20:04 49.80666 2.05498 13753 ft 360 kts 358°
2026-05-06 20:04 49.83181 2.05372 14470 ft 362 kts 357°
2026-05-06 20:05 49.85717 2.05244 15135 ft 367 kts 358°
2026-05-06 20:05 49.88284 2.05114 15836 ft 370 kts 357°
2026-05-06 20:05 49.90863 2.04983 16560 ft 372 kts 357°
2026-05-06 20:05 49.93471 2.04850 17229 ft 377 kts 357°
2026-05-06 20:06 49.96105 2.04716 17866 ft 382 kts 357°
2026-05-06 20:06 49.98784 2.04579 18408 ft 388 kts 357°
2026-05-06 20:06 50.01492 2.04440 18987 ft 391 kts 357°
2026-05-06 20:06 50.04219 2.04300 19578 ft 393 kts 357°
2026-05-06 20:07 50.06930 2.04162 20126 ft 397 kts 357°
2026-05-06 20:07 50.09705 2.04019 20662 ft 401 kts 357°
2026-05-06 20:07 50.12507 2.03875 21195 ft 405 kts 357°
2026-05-06 20:07 50.15339 2.03729 21728 ft 408 kts 357°
2026-05-06 20:08 50.18189 2.03583 22254 ft 412 kts 357°
2026-05-06 20:08 50.21079 2.03434 22684 ft 418 kts 357°
2026-05-06 20:08 50.24000 2.03283 23186 ft 421 kts 357°
2026-05-06 20:08 50.26942 2.03131 23688 ft 424 kts 357°
2026-05-06 20:09 50.29900 2.02978 24128 ft 426 kts 357°
2026-05-06 20:09 50.32872 2.02822 24586 ft 428 kts 356°
2026-05-06 20:09 50.35820 2.02141 24984 ft 429 kts 342°
2026-05-06 20:09 50.38576 2.00378 25408 ft 429 kts 330°
2026-05-06 20:10 50.41017 1.97704 25835 ft 429 kts 318°
2026-05-06 20:10 50.43264 1.94611 26243 ft 431 kts 317°
2026-05-06 20:10 50.45505 1.91464 26612 ft 434 kts 317°
2026-05-06 20:10 50.47766 1.88295 26983 ft 437 kts 317°
2026-05-06 20:11 50.50043 1.85131 27376 ft 439 kts 317°
2026-05-06 20:11 50.52340 1.81965 27824 ft 439 kts 317°
2026-05-06 20:11 50.54615 1.78842 28209 ft 441 kts 317°
2026-05-06 20:11 50.56931 1.75666 28536 ft 444 kts 317°
2026-05-06 20:12 50.59266 1.72462 28859 ft 446 kts 317°
2026-05-06 20:12 50.61610 1.69240 29197 ft 448 kts 317°
2026-05-06 20:12 50.63959 1.66005 29537 ft 450 kts 317°
2026-05-06 20:12 50.66320 1.62749 29897 ft 451 kts 317°
2026-05-06 20:13 50.68679 1.59491 30321 ft 450 kts 317°
2026-05-06 20:13 50.71021 1.56249 30756 ft 447 kts 317°
2026-05-06 20:13 50.73356 1.53013 31143 ft 446 kts 317°
2026-05-06 20:13 50.75686 1.49781 31481 ft 446 kts 317°
2026-05-06 20:14 50.78013 1.46548 31840 ft 445 kts 318°
2026-05-06 20:14 50.80337 1.43318 32217 ft 444 kts 317°
2026-05-06 20:14 50.82649 1.40102 32607 ft 443 kts 317°
2026-05-06 20:14 50.84961 1.36883 32951 ft 442 kts 317°
2026-05-06 20:15 50.87269 1.33664 33279 ft 442 kts 317°
2026-05-06 20:15 50.89571 1.30449 33653 ft 441 kts 317°
2026-05-06 20:15 50.91866 1.27239 34015 ft 440 kts 317°
2026-05-06 20:15 50.94178 1.23999 33996 ft 446 kts 317°
2026-05-06 20:16 50.98803 1.17507 34003 ft 438 kts 317°
2026-05-06 20:16 51.03320 1.11150 34019 ft 431 kts 317°
2026-05-06 20:17 51.07793 1.04789 34022 ft 431 kts 316°
2026-05-06 20:17 51.12094 0.98155 34014 ft 430 kts 314°
2026-05-06 20:18 51.16355 0.91440 34003 ft 430 kts 314°
2026-05-06 20:18 51.20621 0.84748 33995 ft 431 kts 314°
2026-05-06 20:19 51.24908 0.78047 33985 ft 431 kts 314°
2026-05-06 20:19 51.29174 0.71371 33989 ft 431 kts 314°
2026-05-06 20:20 51.33438 0.64681 34019 ft 431 kts 314°
2026-05-06 20:20 51.37715 0.57950 34010 ft 431 kts 314°
2026-05-06 20:21 51.41987 0.51208 34012 ft 431 kts 314°
2026-05-06 20:21 51.46262 0.44443 34013 ft 431 kts 313°
2026-05-06 20:22 51.50526 0.37676 34015 ft 431 kts 313°
2026-05-06 20:22 51.54101 0.31987 34014 ft 431 kts 313°
2026-05-06 20:23 51.58326 0.25247 34021 ft 431 kts 313°
2026-05-06 20:23 51.62609 0.18396 34015 ft 431 kts 313°
2026-05-06 20:24 51.66782 0.11670 34019 ft 430 kts 313°
2026-05-06 20:24 51.70980 0.04771 34016 ft 430 kts 312°
2026-05-06 20:25 51.75120 -0.02062 34042 ft 430 kts 312°
2026-05-06 20:25 51.79262 -0.08906 34043 ft 430 kts 312°
2026-05-06 20:26 51.83416 -0.15785 34028 ft 429 kts 312°
2026-05-06 20:26 51.87564 -0.22670 34020 ft 429 kts 312°
2026-05-06 20:27 51.91721 -0.29590 34020 ft 428 kts 312°
2026-05-06 20:27 51.95870 -0.36517 34020 ft 428 kts 312°
2026-05-06 20:28 52.00006 -0.43440 33808 ft 430 kts 312°
2026-05-06 20:28 52.02096 -0.46948 33386 ft 427 kts 312°
2026-05-06 20:28 52.04149 -0.50395 32901 ft 423 kts 312°
2026-05-06 20:29 52.06180 -0.53811 32493 ft 418 kts 312°
2026-05-06 20:29 52.08188 -0.57193 32045 ft 414 kts 312°
2026-05-06 20:29 52.10179 -0.60553 31612 ft 410 kts 312°
2026-05-06 20:29 52.12151 -0.63884 31206 ft 406 kts 312°
2026-05-06 20:30 52.14098 -0.67180 30790 ft 403 kts 311°
2026-05-06 20:30 52.17957 -0.73723 29958 ft 396 kts 311°
2026-05-06 20:30 52.19855 -0.76945 29499 ft 393 kts 311°
2026-05-06 20:31 52.21734 -0.80141 29082 ft 388 kts 311°
2026-05-06 20:31 52.23574 -0.83266 28664 ft 384 kts 313°
2026-05-06 20:31 52.25608 -0.86163 28225 ft 383 kts 323°
2026-05-06 20:31 52.27851 -0.88479 27822 ft 380 kts 327°
2026-05-06 20:32 52.30116 -0.90682 27410 ft 377 kts 327°
2026-05-06 20:32 52.32333 -0.92832 27005 ft 374 kts 327°
2026-05-06 20:32 52.34561 -0.95009 26613 ft 372 kts 327°
2026-05-06 20:32 52.36768 -0.97185 26206 ft 369 kts 327°
2026-05-06 20:33 52.38955 -0.99356 25824 ft 366 kts 327°
2026-05-06 20:33 52.41121 -1.01516 25430 ft 364 kts 327°
2026-05-06 20:33 52.43282 -1.03674 25024 ft 362 kts 327°
2026-05-06 20:33 52.45425 -1.05816 24627 ft 360 kts 327°
2026-05-06 20:34 52.47558 -1.07951 24243 ft 358 kts 327°
2026-05-06 20:34 52.49678 -1.10080 23853 ft 357 kts 327°
2026-05-06 20:34 52.51786 -1.12215 23436 ft 355 kts 327°
2026-05-06 20:34 52.53884 -1.14347 22989 ft 354 kts 327°
2026-05-06 20:35 52.55967 -1.16463 22569 ft 351 kts 327°
2026-05-06 20:35 52.58036 -1.18560 22186 ft 348 kts 327°
2026-05-06 20:35 52.60101 -1.20648 21791 ft 346 kts 327°
2026-05-06 20:35 52.62141 -1.22714 21414 ft 343 kts 327°
2026-05-06 20:36 52.64169 -1.24770 21031 ft 341 kts 327°
2026-05-06 20:36 52.66182 -1.26812 20658 ft 339 kts 327°
2026-05-06 20:36 52.68183 -1.28847 20290 ft 337 kts 327°
2026-05-06 20:36 52.70174 -1.30872 19919 ft 335 kts 327°
2026-05-06 20:37 52.72158 -1.32891 19534 ft 336 kts 327°
2026-05-06 20:37 52.74154 -1.34921 19199 ft 338 kts 327°
2026-05-06 20:37 52.76166 -1.36970 18813 ft 341 kts 327°
2026-05-06 20:37 52.78199 -1.39042 18411 ft 344 kts 327°
2026-05-06 20:38 52.80210 -1.41094 17961 ft 345 kts 327°
2026-05-06 20:38 52.82252 -1.43180 17519 ft 345 kts 327°
2026-05-06 20:38 52.84264 -1.45238 17090 ft 335 kts 327°
2026-05-06 20:38 52.86218 -1.47238 16709 ft 326 kts 327°
2026-05-06 20:39 52.88137 -1.49204 16331 ft 323 kts 327°
2026-05-06 20:39 52.90056 -1.51175 15959 ft 326 kts 327°
2026-05-06 20:39 52.91976 -1.53149 15575 ft 328 kts 327°
2026-05-06 20:39 52.93921 -1.55149 15197 ft 329 kts 327°
2026-05-06 20:40 52.95865 -1.57151 14803 ft 329 kts 327°
2026-05-06 20:40 52.97803 -1.59149 14422 ft 325 kts 327°
2026-05-06 20:40 52.99691 -1.61095 14034 ft 315 kts 327°
2026-05-06 20:40 53.01543 -1.63008 13664 ft 314 kts 327°
2026-05-06 20:41 53.03400 -1.64928 13268 ft 315 kts 327°
2026-05-06 20:41 53.05229 -1.66861 12885 ft 315 kts 323°
2026-05-06 20:41 53.06779 -1.69423 12523 ft 314 kts 309°
2026-05-06 20:41 53.08153 -1.72218 12133 ft 308 kts 309°
2026-05-06 20:42 53.09506 -1.74905 11770 ft 298 kts 310°
2026-05-06 20:42 53.10829 -1.77494 11425 ft 289 kts 310°
2026-05-06 20:42 53.12119 -1.80009 11087 ft 282 kts 310°
2026-05-06 20:42 53.13381 -1.82462 10769 ft 278 kts 310°
2026-05-06 20:43 53.14647 -1.84925 10465 ft 280 kts 310°
2026-05-06 20:43 53.15914 -1.87391 10126 ft 281 kts 310°
2026-05-06 20:43 53.17175 -1.89848 9983 ft 273 kts 310°
2026-05-06 20:43 53.18419 -1.92272 9480 ft 278 kts 310°
2026-05-06 20:44 53.19655 -1.94685 9131 ft 270 kts 310°
2026-05-06 20:44 53.20861 -1.97041 8785 ft 263 kts 310°
2026-05-06 20:44 53.22034 -1.99336 8461 ft 257 kts 310°
2026-05-06 20:44 53.23163 -2.01598 8160 ft 251 kts 304°
2026-05-06 20:45 53.23658 -2.04322 8078 ft 249 kts 268°
2026-05-06 20:45 53.23205 -2.07059 8056 ft 241 kts 250°
2026-05-06 20:45 53.22595 -2.09598 8036 ft 230 kts 250°
2026-05-06 20:45 53.22007 -2.12033 7917 ft 227 kts 250°
2026-05-06 20:46 53.21415 -2.14482 7617 ft 235 kts 250°
2026-05-06 20:46 53.20800 -2.17029 7280 ft 238 kts 250°
2026-05-06 20:46 53.20169 -2.19629 6970 ft 240 kts 250°
2026-05-06 20:46 53.19535 -2.22236 6603 ft 244 kts 250°
2026-05-06 20:47 53.19029 -2.24942 6195 ft 246 kts 268°
2026-05-06 20:47 53.19224 -2.27772 5838 ft 247 kts 281°
2026-05-06 20:47 53.19516 -2.30617 5447 ft 251 kts 280°
2026-05-06 20:47 53.19804 -2.33459 5087 ft 253 kts 280°
2026-05-06 20:48 53.20100 -2.36347 4776 ft 253 kts 279°
2026-05-06 20:48 53.20400 -2.39217 4433 ft 248 kts 279°
2026-05-06 20:48 53.20701 -2.42021 4108 ft 243 kts 279°
2026-05-06 20:48 53.21005 -2.44762 3837 ft 238 kts 279°
2026-05-06 20:49 53.21333 -2.47448 3627 ft 235 kts 286°
2026-05-06 20:49 53.22218 -2.49684 3383 ft 235 kts 324°
2026-05-06 20:49 53.23742 -2.50487 3134 ft 232 kts
2026-05-06 20:49 53.25151 -2.49515 2940 ft 215 kts 47°
2026-05-06 20:50 53.25803 -2.47406 2735 ft 203 kts 78°
2026-05-06 20:50 53.26384 -2.45273 2429 ft 203 kts 54°
2026-05-06 20:50 53.27268 -2.43527 2147 ft 191 kts 57°
2026-05-06 20:50 53.28037 -2.41813 1904 ft 179 kts 56°
2026-05-06 20:51 53.28787 -2.40230 1658 ft 166 kts 56°
2026-05-06 20:51 53.29476 -2.38797 1433 ft 151 kts 56°
2026-05-06 20:51 53.30112 -2.37476 1220 ft 142 kts 54°
2026-05-06 20:51 53.30719 -2.36212 1019 ft 140 kts 55°
2026-05-06 20:52 53.31332 -2.34924 843 ft 140 kts 53°
2026-05-06 20:52 53.31950 -2.33678 666 ft 144 kts 54°
2026-05-06 20:52 53.32584 -2.32351 472 ft 142 kts 55°
2026-05-06 20:52 53.33183 -2.31101 272 ft 136 kts 52°
2026-05-06 20:53 53.33750 -2.29924 234 ft 112 kts 51°
2026-05-06 20:53 53.34142 -2.29114 234 ft 72 kts 51°
2026-05-06 20:53 53.34373 -2.28662 228 ft 27 kts 38°
2026-05-06 20:53 53.34504 -2.28539 231 ft 19 kts 20°
2026-05-06 20:54 53.34621 -2.28461 232 ft 17 kts 22°
2026-05-06 20:54 53.34711 -2.28392 233 ft 16 kts 37°
2026-05-06 20:54 53.34784 -2.28247 232 ft 16 kts 48°
2026-05-06 20:54 53.34852 -2.28109 232 ft 15 kts 52°
2026-05-06 20:55 53.34917 -2.27977 232 ft 14 kts 50°
2026-05-06 20:55 53.34983 -2.27840 232 ft 16 kts 52°
2026-05-06 20:55 53.35055 -2.27690 232 ft 17 kts 52°
2026-05-06 20:55 53.35132 -2.27532 232 ft 18 kts 51°
2026-05-06 20:56 53.35212 -2.27367 232 ft 19 kts 51°
2026-05-06 20:56 53.35296 -2.27196 232 ft 19 kts 50°
2026-05-06 20:56 53.35376 -2.27020 234 ft 19 kts 53°
2026-05-06 20:56 53.35460 -2.26889 232 ft 16 kts 357°
2026-05-06 20:57 53.35546 -2.26989 237 ft 14 kts 329°
2026-05-06 20:57 53.35625 -2.27085 239 ft 15 kts 321°
2026-05-06 20:57 53.35685 -2.27168 233 ft 8 kts 320°
2026-05-06 20:57 53.35742 -2.27185 232 ft 10 kts 27°
2026-05-06 20:58 53.35807 -2.27171 232 ft 10 kts 329°
2026-05-06 20:58 53.35865 -2.27210 232 ft 8 kts 44°
2026-05-06 20:58 53.35895 -2.27136 232 ft 7 kts 53°
2026-05-06 20:58 53.35901 -2.27123 232 ft 1 kts 55°
2026-05-06 20:59 53.35906 -2.27110 232 ft 0 kts 58°
2026-05-06 20:59 53.35900 -2.27126 232 ft 2 kts 58°
2026-05-06 20:59 53.35906 -2.27113 232 ft 0 kts 56°